Wind_Speed
5 6 14 16 17 23 21 24 21 18 16 16 13 12 15 16 13 12 12 12 10 10 9 10 12 13 12 12 12 11 12 10 7 5 5 6 12 9 7 5 8 6 3 2 2 4 6 5 5
3 4 9 10 21 23 21 22 21 20 17 13 11 12 15 15 14 10 11 10 9 9 9 10 12 11 11 13 13 14 13 13 12 7 8 12 11 8 6 9 11 15 6 6 5 5 8 9 9
7 13 17 26 19 22 21 20 20 19 15 11 14 13 14 14 12 10 11 9 8 9 9 9 11 10 12 14 12 13 13 16 15 11 14 13 10 13 11 11 12 14 15 11 6 5 6 8 9
22 22 20 22 21 24 23 21 21 17 15 13 14 13 12 13 11 11 10 8 8 10 10 10 10 10 11 13 12 10 15 15 16 19 21 18 16 16 14 15 18 19 23 19 9 1 2 3 7
18 17 18 19 21 25 23 18 19 18 15 14 12 11 11 10 10 10 8 7 7 9 11 10 10 11 12 13 13 12 11 14 16 20 19 17 16 15 16 18 23 24 25 24 16 12 9 4 6
13 14 20 19 23 23 23 17 16 17 12 9 10 8 10 10 10 9 8 7 7 9 11 10 10 9 11 13 12 13 12 12 14 15 15 15 14 16 17 22 23 26 28 30 23 21 13 11 14
10 14 19 21 23 25 22 15 16 16 11 9 8 7 9 10 9 9 7 6 6 10 11 11 10 11 12 13 13 15 14 15 15 16 15 14 15 16 20 24 22 25 29 36 34 25 22 18 19
9 9 18 25 24 20 20 19 18 14 13 11 9 9 11 12 8 9 7 6 6 10 11 10 11 12 14 12 13 16 16 20 19 18 18 20 11 20 33 27 24 24 28 31 35 38 33 34 33
9 6 20 27 25 18 16 18 17 13 11 12 11 6 13 13 8 7 6 6 6 9 10 10 12 12 13 12 14 17 19 22 23 23 29 36 46 38 26 23 24 23 24 25 28 32 35 37 36
7 3 17 25 25 23 20 20 18 16 8 13 11 9 12 14 9 7 7 5 6 8 9 9 11 11 12 13 15 18 20 23 24 27 32 26 32 28 26 24 23 23 25 24 26 27 28 29 28
5 5 14 16 24 25 20 17 17 17 15 12 10 10 13 15 10 8 6 5 6 6 8 9 9 10 13 15 16 19 20 23 24 25 26 23 25 25 23 23 24 25 25 26 25 25 24 24 24
2 4 5 19 30 24 19 17 15 15 12 11 11 14 14 13 9 7 7 5 6 5 7 9 8 9 13 16 19 20 21 23 21 20 20 20 22 23 23 24 24 25 25 24 24 24 23 23 21
6 1 5 11 33 21 16 13 12 12 10 10 10 13 13 13 11 10 9 6 6 7 7 9 9 10 13 16 19 21 20 21 19 17 18 18 19 22 24 23 23 24 24 22 21 21 21 20 18
8 10 8 2 9 11 12 10 10 11 12 13 13 13 14 14 13 12 9 8 6 7 9 11 10 11 15 17 19 20 20 18 18 17 16 17 18 19 20 21 22 22 22 21 20 18 18 16 15
9 8 12 11 9 13 12 10 11 11 13 14 13 15 15 15 13 10 10 8 6 8 9 12 11 12 15 18 20 21 19 18 19 18 17 19 18 18 19 18 18 18 19 20 18 16 14 13 12
15 12 5 15 16 15 13 13 12 12 12 14 18 15 15 16 13 13 13 11 8 9 10 13 13 13 16 19 21 21 20 19 19 19 19 19 18 17 17 18 16 15 15 15 15 13 12 11 10
18 12 14 17 16 16 17 17 14 12 12 14 16 18 17 18 17 16 16 14 10 10 11 12 14 14 16 19 21 22 22 22 20 20 19 17 15 14 15 13 12 12 12 12 10 10 10 9 7
15 14 15 12 17 14 13 13 14 15 13 12 14 15 15 14 16 18 18 17 13 12 11 13 14 15 15 19 21 22 24 24 21 18 17 15 13 12 12 11 10 10 10 10 8 9 8 7 5
31 23 19 25 22 18 17 16 16 13 12 12 11 11 10 10 11 12 16 19 15 14 12 13 14 15 15 19 21 22 23 23 21 18 15 14 13 11 12 14 14 13 12 10 8 7 7 4 3
29 28 22 25 25 21 19 19 11 9 11 9 9 7 5 7 11 15 16 19 18 16 15 13 14 14 15 17 21 22 23 22 20 17 15 15 13 13 13 14 13 14 13 11 10 11 10 7 4
32 28 20 23 26 25 22 19 17 14 10 9 9 7 8 7 8 11 17 22 21 18 17 16 14 15 16 16 21 22 22 22 21 18 16 15 16 17 15 15 16 16 16 15 14 13 15 14 10
32 32 29 28 26 15 28 16 20 17 16 10 8 11 9 8 8 9 14 20 24 23 20 18 17 16 18 18 19 22 23 23 22 20 18 18 18 17 18 17 16 15 16 16 15 14 14 15 14
38 30 33 33 29 26 26 25 17 18 18 12 11 10 9 9 9 9 14 20 27 27 24 22 20 18 18 19 18 20 22 22 22 22 20 19 18 18 17 16 15 15 15 16 15 16 16 15 14
40 45 38 35 32 30 25 23 22 17 16 15 15 13 12 12 12 12 13 17 24 27 26 24 22 20 18 19 17 19 21 22 20 21 21 20 19 17 16 15 14 14 15 15 15 15 15 16 15
46 46 36 35 34 33 25 27 28 27 18 22 22 16 16 17 15 14 12 11 23 27 28 26 24 21 19 18 18 18 19 21 22 21 20 20 19 17 14 13 12 12 14 14 14 15 16 17 17
49 47 36 34 28 27 27 36 29 24 26 28 26 24 18 19 12 11 15 11 17 28 31 28 25 23 20 19 19 18 18 19 20 19 18 17 16 15 14 12 11 11 11 11 12 11 12 14 17
50 55 42 35 30 29 28 33 33 23 28 31 33 24 26 23 18 17 15 11 13 23 31 29 28 25 23 22 19 19 18 18 18 18 17 16 14 13 11 9 8 8 9 10 10 9 9 12 16
54 49 50 47 41 39 32 31 30 30 26 33 25 23 24 21 18 19 14 13 12 18 29 30 31 27 25 24 21 19 20 20 20 18 17 16 14 12 9 8 7 6 5 6 6 7 7 9 12
55 56 56 41 44 36 35 33 28 29 30 37 33 23 25 21 20 21 19 18 14 18 22 29 31 30 27 24 22 20 20 19 19 18 16 14 14 13 10 7 6 5 5 4 3 6 7 8 9
52 56 54 53 49 39 38 29 27 40 35 33 30 25 22 18 24 23 22 23 21 19 23 27 31 32 28 26 23 21 21 20 19 18 17 14 13 13 12 9 7 6 7 5 4 5 7 5 6
Wind_Direction
81 92 131 99 130 133 139 147 145 142 144 136 132 126 112 100 101 96 87 79 67 56 44 38 40 40 38 37 46 59 53 47 44 65 91 99 126 104 84 59 56 40 19 338 201 186 175 152 162
71 142 153 154 146 143 148 147 153 151 155 148 141 124 109 105 101 98 85 79 71 60 48 40 43 47 42 50 60 70 65 56 51 82 102 103 110 92 72 75 62 49 53 64 110 150 163 164 165
79 132 139 141 149 153 147 145 149 155 160 153 142 123 113 111 110 103 86 83 75 62 49 39 46 54 60 57 64 76 61 64 60 86 101 104 103 106 95 72 65 64 61 74 98 143 162 161 174
122 127 127 143 154 154 154 154 154 154 156 149 135 123 119 122 120 108 95 92 77 62 46 33 46 58 58 50 61 70 73 68 75 91 102 100 102 104 96 77 82 71 60 50 49 93 144 165 183
135 113 142 148 158 160 162 159 167 167 154 153 135 126 128 132 123 109 97 86 63 62 49 37 59 68 59 49 64 64 69 59 81 90 101 109 111 107 94 86 82 76 65 53 59 62 85 118 152
145 136 152 161 166 159 164 161 169 173 139 151 135 129 138 136 131 114 104 84 64 63 53 51 70 72 63 49 54 57 60 64 78 95 100 97 102 103 99 89 80 77 69 62 74 84 81 88 88
173 153 172 165 166 164 168 174 176 171 179 160 134 145 148 141 142 118 107 87 66 64 64 69 78 70 60 48 59 65 63 71 78 83 84 92 108 110 108 93 83 75 73 70 74 76 79 81 86
106 193 176 173 165 169 171 170 173 164 162 163 149 145 149 147 154 122 108 91 67 64 74 85 83 75 60 58 69 75 76 79 84 95 80 77 99 127 107 99 86 77 77 79 79 80 83 84 83
85 160 171 180 181 188 188 179 166 176 177 173 167 130 151 153 148 126 113 89 81 73 83 89 83 74 67 78 79 83 84 87 88 92 81 82 93 96 100 95 89 82 81 84 84 85 87 89 92
103 148 190 194 185 175 182 187 190 173 183 197 180 170 159 151 151 130 123 91 87 79 97 88 80 67 78 89 89 93 88 91 92 93 93 87 96 95 98 93 89 87 85 89 93 94 95 96 96
121 147 186 199 185 177 181 183 184 186 200 203 192 178 162 160 173 153 140 107 96 92 106 93 81 70 95 103 104 99 96 100 99 93 94 93 93 91 91 92 90 87 85 87 91 94 94 95 95
176 130 194 200 187 174 176 183 186 190 191 183 171 174 168 174 187 169 150 132 108 115 122 105 89 86 104 112 113 107 106 103 101 95 90 91 93 94 95 93 90 87 84 84 86 89 91 92 92
168 132 158 194 185 154 166 185 192 200 184 185 181 187 188 177 193 188 173 158 130 138 133 116 100 102 118 119 117 114 110 105 99 95 92 93 93 92 95 92 89 88 85 87 88 89 89 91 90
192 184 176 221 127 145 171 192 206 216 207 197 192 196 193 192 200 206 191 172 156 150 140 121 112 116 125 128 123 118 120 113 105 100 101 102 98 94 90 89 92 89 90 93 97 96 95 93 89
202 184 186 180 165 186 191 202 209 222 215 206 197 192 190 201 204 214 206 188 177 160 150 125 122 125 131 134 129 122 120 123 118 107 108 103 101 94 90 92 97 96 94 95 95 92 92 90 91
201 169 205 197 187 192 167 242 216 215 210 206 205 206 208 205 205 212 208 201 194 178 155 132 131 132 135 141 137 128 124 126 125 116 114 110 101 96 100 99 102 104 106 102 99 95 89 91 94
194 194 193 205 198 200 196 209 209 218 225 212 208 213 217 214 208 210 209 202 201 191 162 141 134 139 139 145 143 136 130 129 128 124 120 115 104 104 108 106 105 109 110 98 97 89 81 84 84
211 196 198 206 208 212 224 227 214 213 218 224 214 214 214 206 208 202 204 204 202 193 180 153 142 146 144 146 148 143 134 133 134 135 131 120 113 111 103 104 102 99 98 93 79 77 77 72 61
194 189 209 205 211 213 215 227 225 222 221 221 219 207 198 197 202 216 210 200 203 195 193 167 154 154 149 149 151 152 145 141 137 137 133 125 116 111 108 105 103 100 95 93 77 58 49 45 48
213 195 202 209 210 215 212 224 209 218 216 226 243 225 211 192 199 200 200 210 206 199 192 192 168 162 155 156 153 149 153 152 150 145 140 132 126 121 116 107 101 95 89 83 79 67 55 56 52
218 211 212 209 212 214 215 226 224 228 223 225 237 217 217 197 197 212 205 203 203 204 199 196 185 170 167 162 161 153 153 151 152 151 149 142 136 131 118 109 101 94 88 81 72 61 52 56 62
219 221 220 217 214 218 212 202 225 234 236 240 254 235 223 207 209 203 211 215 209 205 204 198 191 181 180 170 169 161 156 151 145 144 142 142 136 126 120 116 108 100 93 90 85 75 67 63 61
217 234 227 231 224 226 217 218 219 228 239 234 239 220 220 236 221 209 208 213 217 208 202 202 195 187 188 178 174 167 161 157 151 151 149 146 139 135 132 125 114 102 91 81 79 77 74 68 65
219 228 230 236 234 231 226 220 211 231 228 216 222 221 241 246 241 240 229 215 222 217 209 206 200 191 190 186 177 175 169 161 161 159 155 151 147 144 134 122 112 100 90 83 73 71 70 67 65
218 225 229 235 232 234 229 230 197 214 214 210 217 227 244 263 275 266 264 243 224 221 219 209 206 197 191 188 183 186 182 171 166 163 158 154 150 143 133 120 110 92 80 75 69 66 62 59 61
219 222 223 228 231 236 239 225 208 206 209 212 212 220 237 250 249 256 258 259 244 221 216 211 210 202 195 194 191 192 197 188 178 171 165 158 153 147 140 130 115 98 85 84 76 65 62 61 55
223 224 221 227 228 232 230 232 218 203 206 206 201 213 227 237 244 245 248 255 255 226 219 212 208 207 201 198 198 193 200 202 192 181 173 164 161 157 150 144 126 106 94 93 84 63 65 68 62
221 227 223 222 224 231 235 224 214 206 210 211 212 213 230 239 242 249 234 243 245 219 215 217 210 206 208 202 197 197 198 206 207 194 185 173 167 168 161 162 149 130 117 105 89 76 76 79 68
220 224 221 226 233 232 237 230 225 203 219 221 191 198 221 233 239 235 240 242 242 217 216 220 218 210 210 210 202 201 203 207 213 207 197 183 174 177 177 167 167 168 166 145 116 107 100 86 62
222 223 227 225 223 227 226 229 234 203 211 205 224 192 201 218 243 248 244 246 240 235 218 217 224 217 215 214 210 208 210 210 211 215 206 196 190 193 196 191 186 197 196 198 189 148 122 98 52
Height
5889 5889 5889 5889 5894 5892 5893 5895 5897 5898 5900 5899 5900 5901 5900 5901 5902 5906 5903 5903 5903 5902 5901 5900 5899 5897 5897 5896 5894 5893 5892 5890 5888 5887 5886 5885 5886 5887 5886 5885 5883 5882 5880 5879 5880 5882 5884 5885 5885
5887 5888 5888 5889 5893 5893 5895 5896 5897 5898 5900 5900 5902 5902 5902 5903 5904 5905 5905 5905 5904 5903 5902 5902 5901 5899 5899 5898 5896 5895 5894 5891 5889 5887 5887 5888 5888 5888 5887 5886 5885 5883 5881 5880 5880 5881 5882 5884 5885
5885 5886 5888 5889 5893 5895 5897 5898 5899 5899 5900 5901 5903 5903 5904 5905 5906 5906 5907 5907 5906 5905 5905 5904 5902 5902 5901 5899 5897 5896 5895 5893 5890 5888 5889 5889 5889 5889 5889 5887 5887 5885 5883 5881 5881 5881 5882 5884 5885
5888 5890 5892 5892 5895 5897 5897 5898 5899 5900 5902 5903 5904 5904 5906 5906 5907 5907 5908 5908 5908 5907 5906 5906 5904 5904 5902 5901 5899 5898 5898 5895 5893 5891 5891 5892 5892 5891 5890 5890 5889 5887 5885 5884 5882 5882 5882 5884 5885
5892 5893 5894 5895 5896 5897 5898 5900 5901 5901 5903 5905 5905 5906 5908 5908 5908 5908 5909 5909 5909 5908 5907 5907 5906 5906 5904 5902 5901 5901 5899 5898 5896 5895 5894 5893 5893 5893 5894 5893 5893 5892 5890 5887 5884 5883 5883 5884 5884
5894 5896 5896 5897 5898 5899 5901 5901 5902 5903 5905 5906 5907 5908 5909 5910 5909 5910 5910 5910 5910 5909 5908 5908 5908 5907 5906 5904 5903 5903 5901 5899 5899 5897 5896 5897 5896 5896 5897 5898 5897 5896 5893 5890 5887 5886 5885 5884 5885
5894 5896 5898 5898 5899 5899 5902 5903 5904 5905 5906 5908 5908 5909 5910 5911 5910 5910 5911 5911 5911 5910 5910 5910 5910 5909 5908 5907 5906 5904 5903 5902 5900 5900 5899 5898 5898 5899 5901 5901 5900 5899 5897 5895 5892 5889 5888 5889 5890
5894 5896 5897 5898 5900 5902 5901 5902 5904 5907 5907 5908 5909 5909 5911 5912 5911 5912 5912 5912 5912 5912 5912 5912 5913 5912 5910 5909 5909 5907 5906 5904 5904 5904 5902 5901 5895 5901 5904 5905 5904 5904 5902 5900 5899 5897 5896 5895 5896
5896 5897 5897 5897 5898 5901 5903 5903 5904 5906 5907 5908 5910 5911 5912 5913 5913 5913 5914 5914 5914 5914 5914 5915 5915 5915 5913 5912 5911 5910 5909 5908 5908 5908 5907 5905 5902 5905 5907 5909 5908 5908 5907 5906 5905 5904 5904 5903 5904
5896 5897 5896 5896 5898 5900 5903 5903 5904 5905 5907 5908 5910 5912 5913 5914 5915 5915 5915 5916 5916 5916 5916 5917 5918 5917 5915 5915 5914 5913 5913 5912 5912 5912 5913 5911 5912 5912 5913 5913 5914 5913 5912 5912 5911 5910 5910 5910 5911
5895 5895 5896 5897 5898 5900 5902 5903 5905 5905 5907 5909 5911 5913 5914 5915 5916 5915 5916 5917 5918 5918 5918 5919 5920 5920 5918 5918 5916 5916 5916 5915 5916 5916 5918 5917 5916 5916 5916 5917 5917 5917 5916 5916 5916 5916 5915 5915 5916
5895 5895 5895 5896 5897 5899 5902 5903 5905 5906 5908 5910 5910 5913 5915 5916 5916 5917 5917 5918 5919 5920 5920 5921 5922 5922 5921 5921 5919 5919 5920 5919 5920 5921 5922 5921 5920 5920 5921 5921 5921 5921 5920 5920 5920 5920 5921 5921 5921
5897 5897 5896 5895 5893 5897 5901 5904 5906 5908 5908 5910 5911 5914 5915 5915 5917 5918 5917 5918 5920 5921 5921 5922 5924 5924 5924 5923 5923 5923 5923 5923 5924 5926 5926 5925 5925 5924 5924 5924 5924 5924 5924 5924 5925 5925 5925 5925 5925
5896 5898 5898 5896 5895 5899 5902 5904 5906 5908 5909 5910 5911 5914 5916 5916 5916 5918 5919 5919 5921 5923 5923 5923 5926 5926 5926 5926 5926 5926 5927 5927 5927 5929 5929 5929 5928 5927 5927 5928 5928 5928 5928 5928 5928 5928 5928 5929 5929
5897 5899 5899 5899 5898 5901 5903 5905 5905 5906 5908 5910 5911 5913 5915 5916 5917 5919 5921 5921 5922 5923 5925 5924 5927 5928 5928 5928 5928 5928 5929 5930 5931 5931 5932 5932 5932 5932 5931 5931 5931 5932 5932 5933 5932 5932 5932 5931 5931
5897 5900 5903 5901 5901 5903 5906 5905 5905 5906 5907 5909 5910 5913 5914 5916 5918 5919 5921 5922 5923 5924 5925 5925 5928 5930 5929 5930 5931 5931 5931 5933 5934 5934 5935 5936 5936 5935 5935 5935 5936 5936 5935 5935 5935 5935 5935 5935 5934
5898 5901 5899 5900 5902 5903 5904 5903 5905 5906 5907 5908 5910 5911 5913 5915 5916 5918 5920 5921 5923 5926 5926 5927 5928 5931 5931 5932 5932 5933 5933 5934 5936 5937 5938 5939 5939 5939 5939 5939 5939 5938 5938 5939 5938 5937 5937 5936 5935
5898 5898 5900 5903 5901 5903 5904 5905 5905 5906 5908 5909 5909 5911 5912 5914 5915 5917 5918 5921 5923 5926 5927 5928 5929 5932 5932 5933 5934 5935 5935 5936 5938 5939 5940 5941 5942 5942 5942 5942 5941 5941 5941 5941 5940 5939 5938 5937 5935
5888 5893 5896 5897 5899 5901 5903 5905 5906 5908 5908 5908 5910 5910 5911 5912 5915 5918 5919 5920 5922 5925 5927 5929 5929 5933 5933 5933 5935 5936 5937 5938 5939 5941 5942 5942 5943 5944 5944 5944 5944 5944 5943 5943 5941 5939 5939 5937 5935
5884 5888 5892 5893 5896 5899 5901 5903 5906 5906 5907 5909 5910 5910 5910 5912 5913 5915 5917 5919 5920 5924 5926 5929 5931 5933 5934 5935 5936 5936 5937 5939 5940 5942 5943 5943 5944 5945 5946 5946 5946 5945 5944 5943 5943 5942 5940 5938 5936
5879 5884 5889 5891 5893 5897 5900 5903 5905 5905 5906 5907 5908 5909 5910 5912 5913 5914 5916 5916 5919 5923 5925 5928 5932 5933 5935 5935 5936 5937 5938 5939 5941 5943 5945 5945 5946 5948 5948 5948 5948 5947 5946 5944 5943 5942 5940 5938 5936
5875 5879 5881 5885 5889 5896 5897 5905 5904 5904 5905 5906 5908 5909 5910 5910 5913 5914 5916 5916 5918 5919 5924 5927 5930 5932 5935 5935 5936 5937 5938 5940 5941 5943 5945 5947 5948 5949 5950 5951 5951 5950 5948 5946 5945 5944 5943 5940 5939
5871 5873 5875 5878 5883 5887 5892 5898 5902 5902 5905 5906 5907 5908 5908 5910 5912 5913 5914 5913 5915 5917 5922 5924 5928 5931 5934 5935 5937 5938 5939 5941 5941 5943 5945 5948 5948 5950 5951 5952 5952 5951 5950 5949 5947 5946 5945 5944 5942
5864 5863 5869 5873 5879 5883 5887 5893 5898 5902 5903 5905 5905 5906 5907 5909 5910 5912 5912 5912 5914 5917 5921 5924 5927 5928 5932 5934 5936 5939 5940 5941 5943 5944 5945 5947 5949 5950 5951 5951 5951 5951 5950 5950 5949 5948 5947 5946 5944
5853 5857 5864 5869 5872 5877 5885 5888 5893 5894 5899 5901 5902 5905 5905 5906 5908 5909 5910 5910 5911 5914 5919 5922 5926 5928 5930 5933 5935 5938 5941 5941 5943 5945 5946 5947 5948 5949 5950 5951 5951 5950 5950 5950 5949 5949 5948 5947 5945
5845 5851 5859 5865 5870 5876 5878 5880 5889 5891 5894 5896 5900 5900 5902 5904 5904 5905 5906 5907 5908 5910 5914 5919 5923 5926 5929 5931 5932 5936 5940 5942 5943 5944 5946 5946 5947 5949 5949 5950 5951 5951 5950 5950 5950 5949 5949 5948 5946
5837 5837 5853 5859 5866 5868 5875 5875 5882 5888 5890 5892 5890 5896 5898 5899 5902 5902 5902 5903 5904 5907 5911 5916 5919 5923 5926 5928 5931 5933 5937 5941 5943 5944 5945 5945 5947 5948 5949 5949 5951 5951 5950 5950 5951 5950 5949 5949 5948
5826 5834 5841 5845 5853 5858 5864 5868 5877 5882 5885 5886 5885 5891 5892 5894 5898 5899 5899 5900 5901 5902 5906 5911 5915 5919 5923 5925 5929 5932 5934 5938 5941 5942 5943 5944 5945 5947 5948 5949 5950 5951 5951 5950 5950 5950 5950 5949 5948
5816 5822 5829 5842 5845 5851 5858 5863 5871 5877 5877 5876 5879 5885 5888 5890 5893 5895 5896 5897 5898 5900 5903 5908 5912 5916 5921 5924 5926 5930 5932 5936 5939 5941 5942 5943 5944 5945 5947 5948 5949 5950 5950 5950 5950 5950 5949 5949 5948
5807 5816 5823 5830 5836 5842 5850 5861 5863 5868 5871 5875 5875 5879 5883 5886 5889 5891 5891 5892 5895 5898 5900 5904 5908 5913 5918 5921 5924 5927 5930 5933 5937 5939 5941 5942 5943 5943 5944 5946 5947 5948 5949 5949 5950 5949 5949 5948 5947